Retour au catalogue

ICEYE-X65

ActifScienceVLEO
NORAD 66300·PAYLOAD·🇦🇪 UAE

Lancé Nov 2, 2025 depuis Cape Canaveral Space Force Station

Loading…

Prochains Passages (prochaines 24 heures)

TLE

FraisSource: Space-Track

Époque: Sep 14, 2026, 17:07 UTC

1 66300U 25248H   26257.71356711  .00002462  00000-0  17262-3 0  9994
2 66300  45.4068  23.3168 0005014 181.1156 178.9716 15.08182839 49030

Suivez ICEYE-X65 en temps réel avec AllMySat

Download on the App Store